FW6490 Weather Reports


Display with metric or nautical units.
time (UTC)temp
F
wind
direction
speed
MPH
gust
MPH
rain 1hr
in
rain 24hr
in
rain mn
in
humidity
%
barometer
mb
20201130111451 41 317 0.0 0.0 0.00 0.00 0.00 75 1021.1
20201130110945 41 317 0.0 0.0 0.00 0.00 0.00 75 1021.2
20201130110447 41 317 0.0 0.0 0.00 0.00 0.00 74 1021.2
20201130105945 41 317 0.0 3.0 0.00 0.00 0.00 74 1021.2
20201130105438 41 317 0.0 3.0 0.00 0.00 0.00 74 1021.3
20201130104939 41 317 0.0 2.0 0.00 0.00 0.00 74 1021.3
20201130104433 41 317 0.0 2.0 0.00 0.00 0.00 74 1021.3
20201130103931 41 317 0.0 1.0 0.00 0.00 0.00 74 1021.5
20201130103432 41 317 0.0 0.0 0.00 0.00 0.00 75 1021.5
20201130102925 41 317 0.0 0.0 0.00 0.00 0.00 76 1021.5
20201130102424 40 317 0.0 0.0 0.00 0.00 0.00 75 1021.7
20201130101925 40 317 0.0 0.0 0.00 0.00 0.00 77 1021.7
20201130101420 40 317 0.0 0.0 0.00 0.00 0.00 78 1021.7
20201130100920 40 317 0.0 0.0 0.00 0.00 0.00 78 1021.7
20201130100420 40 317 0.0 0.0 0.00 0.00 0.00 79 1021.7
20201130095921 40 317 0.0 0.0 0.00 0.00 0.00 79 1021.7
20201130095420 40 317 0.0 0.0 0.00 0.00 0.00 80 1021.7
20201130094917 40 317 0.0 0.0 0.00 0.00 0.00 81 1021.7
20201130094414 40 317 0.0 0.0 0.00 0.00 0.00 81 1021.7
20201130093910 40 317 0.0 0.0 0.00 0.00 0.00 81 1021.6
20201130093403 40 317 0.0 0.0 0.00 0.00 0.00 81 1021.6
20201130092859 40 317 0.0 0.0 0.00 0.00 0.00 82 1021.6
20201130092359 40 317 0.0 0.0 0.00 0.00 0.00 82 1021.5
20201130091854 40 317 0.0 0.0 0.00 0.00 0.00 82 1021.5
20201130091347 40 317 0.0 0.0 0.00 0.00 0.00 82 1021.5
20201130090842 41 317 0.0 0.0 0.00 0.00 0.00 82 1021.3
20201130090339 41 317 0.0 0.0 0.00 0.00 0.00 82 1021.3
20201130085840 41 317 0.0 0.0 0.00 0.00 0.00 82 1021.3
20201130085338 41 317 0.0 0.0 0.00 0.00 0.00 83 1021.5
20201130084833 42 317 0.0 0.0 0.00 0.00 0.00 82 1021.5
20201130084330 42 317 0.0 0.0 0.00 0.00 0.00 82 1021.6
20201130083830 42 317 0.0 0.0 0.00 0.00 0.00 81 1021.6
20201130083330 42 317 0.0 0.0 0.00 0.00 0.00 80 1021.6
20201130082825 42 317 0.0 0.0 0.00 0.00 0.00 80 1021.6
20201130082324 42 317 0.0 0.0 0.00 0.00 0.00 81 1021.6
20201130081817 42 317 0.0 0.0 0.00 0.00 0.00 81 1021.6
20201130081317 42 317 0.0 0.0 0.00 0.00 0.00 83 1021.7
20201130080813 42 317 0.0 0.0 0.00 0.00 0.00 83 1021.7
20201130080313 42 317 0.0 0.0 0.00 0.00 0.00 82 1021.7
20201130075809 41 317 0.0 0.0 0.00 0.00 0.00 79 1021.9
20201130075305 41 317 0.0 0.0 0.00 0.00 0.00 79 1021.9
20201130074803 41 317 0.0 0.0 0.00 0.00 0.00 79 1021.9
20201130074259 41 317 0.0 0.0 0.00 0.00 0.00 79 1022.2
20201130073758 41 317 0.0 0.0 0.00 0.00 0.00 80 1022.2
20201130073256 41 317 0.0 0.0 0.00 0.00 0.00 80 1022.2
20201130072754 41 317 0.0 0.0 0.00 0.00 0.00 80 1022.3
20201130072259 41 317 0.0 0.0 0.00 0.00 0.00 79 1022.3
20201130071754 41 317 0.0 0.0 0.00 0.00 0.00 77 1022.3
20201130071252 41 317 0.0 0.0 0.00 0.00 0.00 77 1022.2
20201130070750 42 317 0.0 0.0 0.00 0.00 0.00 77 1022.2
20201130070246 42 317 0.0 0.0 0.00 0.00 0.00 77 1022.2
20201130065743 42 317 0.0 0.0 0.00 0.00 0.00 75 1022.2
20201130065241 42 317 0.0 0.0 0.00 0.00 0.00 76 1022.2
20201130064744 42 317 0.0 0.0 0.00 0.00 0.00 76 1022.2
20201130064234 42 317 0.0 0.0 0.00 0.00 0.00 75 1022.1
20201130063731 42 317 0.0 0.0 0.00 0.00 0.00 75 1022.1
20201130063233 42 317 0.0 0.0 0.00 0.00 0.00 76 1022.1
20201130062734 42 317 0.0 0.0 0.00 0.00 0.00 76 1021.9
20201130062232 42 317 0.0 0.0 0.00 0.00 0.00 76 1021.9
20201130061729 42 317 0.0 0.0 0.00 0.00 0.00 76 1021.9
20201130061223 43 317 0.0 0.0 0.00 0.00 0.00 76 1021.7
20201130060726 43 317 0.0 0.0 0.00 0.00 0.00 75 1021.7
20201130060222 43 317 0.0 0.0 0.00 0.00 0.00 74 1021.7
20201130055721 43 317 0.0 0.0 0.00 0.00 0.00 73 1021.5
20201130055218 43 317 0.0 0.0 0.00 0.00 0.00 74 1021.5
20201130054717 43 317 0.0 0.0 0.00 0.00 0.00 74 1021.5
20201130054217 43 317 0.0 0.0 0.00 0.00 0.00 73 1021.3
20201130053716 44 317 0.0 0.0 0.00 0.00 0.00 73 1021.3
20201130053217 44 317 0.0 0.0 0.00 0.00 0.00 73 1021.3
20201130052709 44 317 0.0 0.0 0.00 0.00 0.00 73 1021.3
20201130052208 44 317 0.0 0.0 0.00 0.00 0.00 73 1021.3
20201130051710 44 317 0.0 0.0 0.00 0.00 0.00 73 1021.3
20201130051210 44 317 0.0 0.0 0.00 0.00 0.00 72 1021.3
20201130050704 44 317 0.0 0.0 0.00 0.00 0.00 73 1021.3
20201130050209 44 317 0.0 0.0 0.00 0.00 0.00 73 1021.3
20201130045700 44 317 0.0 0.0 0.00 0.00 0.00 72 1021.2
20201130045152 44 317 0.0 0.0 0.00 0.00 0.00 72 1021.2
20201130044653 44 317 0.0 0.0 0.00 0.00 0.00 71 1021.2
20201130044152 45 317 0.0 0.0 0.00 0.00 0.00 70 1021.2
20201130043651 45 317 0.0 0.0 0.00 0.00 0.00 69 1021.2
20201130043146 45 317 0.0 0.0 0.00 0.00 0.00 69 1021.2
20201130042643 44 317 0.0 0.0 0.00 0.00 0.00 68 1021.1
20201130042142 44 317 0.0 0.0 0.00 0.00 0.00 64 1021.1
20201130041643 44 317 0.0 0.0 0.00 0.00 0.00 64 1021.1
20201130041139 44 317 0.0 0.0 0.00 0.00 0.00 65 1021.1
20201130040639 44 317 0.0 0.0 0.00 0.00 0.00 66 1021.1
20201130040137 45 317 0.0 0.0 0.00 0.00 0.00 67 1021.1
20201130035634 45 317 0.0 0.0 0.00 0.00 0.00 66 1021.0
20201130035136 45 317 0.0 0.0 0.00 0.00 0.00 65 1021.0
20201130034630 46 317 0.0 0.0 0.00 0.00 0.00 64 1021.0
20201130034128 46 317 0.0 0.0 0.00 0.00 0.00 66 1021.1
20201130033627 46 317 0.0 0.0 0.00 0.00 0.00 66 1021.1
20201130033128 47 317 0.0 0.0 0.00 0.00 0.00 65 1021.1
20201130032624 47 317 0.0 0.0 0.00 0.00 0.00 62 1021.0
20201130032118 47 317 0.0 0.0 0.00 0.00 0.00 61 1021.0
20201130031617 47 317 0.0 0.0 0.00 0.00 0.00 60 1021.0
20201130031115 47 317 0.0 0.0 0.00 0.00 0.00 59 1020.8
20201130030616 48 317 0.0 0.0 0.00 0.00 0.00 59 1020.8
20201130030108 48 317 0.0 0.0 0.00 0.00 0.00 62 1020.8
20201130025607 48 317 0.0 0.0 0.00 0.00 0.00 58 1020.3
20201130025105 49 317 0.0 0.0 0.00 0.00 0.00 56 1020.3
20201130024601 49 317 0.0 0.0 0.00 0.00 0.00 54 1020.3
20201130024059 49 317 0.0 0.0 0.00 0.00 0.00 55 1020.2
20201130023600 49 317 0.0 0.0 0.00 0.00 0.00 54 1020.2
20201130023057 50 317 0.0 0.0 0.00 0.00 0.00 57 1020.2
20201130022557 50 317 0.0 0.0 0.00 0.00 0.00 60 1020.2
20201130022056 51 317 0.0 0.0 0.00 0.00 0.00 59 1020.2
20201130021553 51 317 0.0 0.0 0.00 0.00 0.00 58 1020.2
20201130021052 51 317 0.0 0.0 0.00 0.00 0.00 62 1020.2
20201130020551 52 317 0.0 0.0 0.00 0.00 0.00 62 1020.2
20201130020050 52 317 0.0 0.0 0.00 0.00 0.00 62 1020.2
20201130015548 52 317 0.0 0.0 0.00 0.00 0.00 59 1020.1
20201130015048 52 317 0.0 0.0 0.00 0.00 0.00 60 1020.1
20201130014549 52 317 0.0 1.0 0.00 0.00 0.00 61 1020.1
20201130014050 52 317 0.0 2.0 0.00 0.00 0.00 56 1020.2
20201130013544 52 317 0.0 3.0 0.00 0.00 0.00 57 1020.2
20201130013042 53 317 1.0 3.0 0.00 0.00 0.00 58 1020.2
20201130012540 53 317 1.0 3.0 0.00 0.00 0.00 58 1020.2
20201130012039 53 317 1.0 3.0 0.00 0.00 0.00 60 1020.2
20201130011536 53 317 0.0 3.0 0.00 0.00 0.00 60 1020.2
20201130011039 53 317 0.0 2.0 0.00 0.00 0.00 59 1020.2
20201130010541 54 317 0.0 2.0 0.00 0.00 0.00 60 1020.3
20201130010037 54 317 0.0 2.0 0.00 0.00 0.00 60 1020.3
20201130005528 55 317 0.0 3.0 0.00 0.00 0.00 59 1020.5
20201130005029 55 317 0.0 3.0 0.00 0.00 0.00 58 1020.5
20201130004528 56 317 1.0 3.0 0.00 0.00 0.00 58 1020.5
20201130004025 56 317 1.0 3.0 0.00 0.00 0.00 58 1020.4
20201130003529 56 317 0.0 4.0 0.00 0.00 0.00 58 1020.4
20201130003023 57 318 1.0 6.0 0.00 0.00 0.00 58 1020.4
20201130002526 58 318 1.0 6.0 0.00 0.00 0.00 57 1020.4
20201130002027 58 318 2.0 6.0 0.00 0.00 0.00 57 1020.4
20201130001519 58 318 3.0 8.0 0.00 0.00 0.00 56 1020.4
20201130001022 59 317 4.0 8.0 0.00 0.00 0.00 56 1020.4
20201130000540 59 309 4.0 9.0 0.00 0.00 0.00 55 1020.4
20201130000020 60 306 4.0 10.0 0.00 0.00 0.00 52 1020.4
20201129235521 61 303 5.0 10.0 0.00 0.00 0.00 48 1020.0
20201129235021 62 303 4.0 8.0 0.00 0.00 0.00 41 1020.1
20201129234520 63 315 3.0 8.0 0.00 0.00 0.00 37 1020.1
20201129234017 65 318 2.0 6.0 0.00 0.00 0.00 34 1019.9
20201129233512 66 313 1.0 5.0 0.00 0.00 0.00 33 1019.9
20201129232959 65 311 1.0 5.0 0.00 0.00 0.00 34 1019.9
20201129232456 65 309 2.0 6.0 0.00 0.00 0.00 35 1019.7
20201129231957 65 309 2.0 7.0 0.00 0.00 0.00 35 1019.7
20201129231456 65 311 3.0 8.0 0.00 0.00 0.00 36 1019.7
20201129230953 66 312 4.0 9.0 0.00 0.00 0.00 36 1019.3
20201129230451 68 320 3.0 9.0 0.00 0.00 0.00 36 1019.3
20201129225950 69 332 2.0 5.0 0.00 0.00 0.00 36 1019.3
20201129225449 69 333 1.0 4.0 0.00 0.00 0.00 36 1019.1
20201129224944 70 333 1.0 5.0 0.00 0.00 0.00 36 1019.1
20201129224440 70 333 2.0 5.0 0.00 0.00 0.00 36 1019.1
20201129223938 70 333 2.0 6.0 0.00 0.00 0.00 36 1019.0
20201129223440 71 333 2.0 6.0 0.00 0.00 0.00 37 1019.0
20201129222937 72 336 1.0 5.0 0.00 0.00 0.00 36 1019.0
20201129222436 72 337 1.0 4.0 0.00 0.00 0.00 36 1018.9
20201129221938 72 337 1.0 4.0 0.00 0.00 0.00 36 1018.9
20201129221437 72 337 1.0 4.0 0.00 0.00 0.00 35 1018.9
20201129220943 72 337 1.0 4.0 0.00 0.00 0.00 34 1018.9
20201129220434 72 337 2.0 4.0 0.00 0.00 0.00 33 1018.9
20201129215934 72 337 2.0 5.0 0.00 0.00 0.00 33 1018.9
20201129215433 72 338 2.0 5.0 0.00 0.00 0.00 33 1018.9
20201129214936 73 338 1.0 5.0 0.00 0.00 0.00 30 1018.9
20201129214432 73 343 0.0 4.0 0.00 0.00 0.00 28 1018.9
20201129213933 73 343 1.0 5.0 0.00 0.00 0.00 26 1018.9
20201129213433 72 343 2.0 5.0 0.00 0.00 0.00 25 1018.9
20201129212931 73 348 1.0 5.0 0.00 0.00 0.00 25 1018.9
20201129212425 74 348 1.0 5.0 0.00 0.00 0.00 24 1018.9
20201129211925 76 355 0.0 5.0 0.00 0.00 0.00 22 1018.9
20201129211422 76 0 0.0 1.0 0.00 0.00 0.00 21 1018.9
20201129210924 77 0 0.0 2.0 0.00 0.00 0.00 21 1019.0
20201129210418 77 0 0.0 2.0 0.00 0.00 0.00 21 1019.0
20201129205921 77 0 0.0 3.0 0.00 0.00 0.00 21 1019.0
20201129205412 77 0 1.0 3.0 0.00 0.00 0.00 20 1019.1
20201129204917 77 0 0.0 3.0 0.00 0.00 0.00 20 1019.1
20201129204409 77 0 0.0 2.0 0.00 0.00 0.00 20 1019.1
20201129203909 76 0 0.0 3.0 0.00 0.00 0.00 21 1019.2
20201129203409 76 0 0.0 3.0 0.00 0.00 0.00 19 1019.2
20201129202910 76 0 0.0 2.0 0.00 0.00 0.00 18 1019.2
20201129202404 74 0 0.0 2.0 0.00 0.00 0.00 20 1019.4
20201129201901 74 0 0.0 2.0 0.00 0.00 0.00 19 1019.4
20201129201403 74 0 1.0 4.0 0.00 0.00 0.00 21 1019.4
20201129200902 73 0 1.0 4.0 0.00 0.00 0.00 20 1019.5
20201129200406 73 355 0.0 2.0 0.00 0.00 0.00 20 1019.5
20201129195858 74 355 0.0 2.0 0.00 0.00 0.00 20 1019.5
20201129195353 73 355 0.0 2.0 0.00 0.00 0.00 21 1019.9
20201129194855 73 355 1.0 4.0 0.00 0.00 0.00 20 1019.9
20201129194356 72 355 1.0 5.0 0.00 0.00 0.00 21 1019.9
20201129193848 72 355 0.0 4.0 0.00 0.00 0.00 22 1020.0
20201129193348 72 328 0.0 3.0 0.00 0.00 0.00 20 1020.0
20201129192847 72 328 0.0 3.0 0.00 0.00 0.00 20 1020.0
20201129192344 71 328 0.0 2.0 0.00 0.00 0.00 23 1020.4
20201129191845 70 328 0.0 2.0 0.00 0.00 0.00 23 1020.3
20201129191344 69 328 0.0 0.0 0.00 0.00 0.00 25 1020.3
20201129190843 69 328 0.0 0.0 0.00 0.00 0.00 23 1020.6
20201129190337 68 328 0.0 0.0 0.00 0.00 0.00 26 1020.6
20201129185836 67 328 0.0 0.0 0.00 0.00 0.00 28 1020.9
20201129185337 66 328 0.0 0.0 0.00 0.00 0.00 26 1020.9
20201129184832 65 328 0.0 0.0 0.00 0.00 0.00 28 1020.9
20201129184331 64 328 0.0 0.0 0.00 0.00 0.00 28 1021.0
20201129183834 64 328 0.0 0.0 0.00 0.00 0.00 29 1021.0
20201129183328 64 328 0.0 0.0 0.00 0.00 0.00 30 1021.0
20201129182831 63 328 0.0 0.0 0.00 0.00 0.00 34 1021.0
20201129182328 62 328 0.0 1.0 0.00 0.00 0.00 30 1020.9
20201129181826 62 328 0.0 2.0 0.00 0.00 0.00 32 1020.9
20201129181325 61 328 0.0 2.0 0.00 0.00 0.00 32 1020.9
20201129180823 60 328 0.0 2.0 0.00 0.00 0.00 35 1020.9
20201129180324 59 328 0.0 1.0 0.00 0.00 0.00 36 1020.9
20201129175820 58 328 0.0 2.0 0.00 0.00 0.00 37 1021.0
20201129175322 57 328 1.0 2.0 0.00 0.00 0.00 38 1021.0
20201129174821 56 328 1.0 3.0 0.00 0.00 0.00 40 1021.0
20201129174316 56 327 1.0 4.0 0.00 0.00 0.00 42 1021.0
20201129173817 55 327 1.0 4.0 0.00 0.00 0.00 42 1021.0
20201129173320 55 316 0.0 2.0 0.00 0.00 0.00 45 1021.0
20201129172815 53 316 0.0 1.0 0.00 0.00 0.00 49 1020.8
20201129172312 52 316 0.0 2.0 0.00 0.00 0.00 50 1020.8
20201129171812 51 316 1.0 2.0 0.00 0.00 0.00 53 1020.8
20201129171314 50 316 0.0 2.0 0.00 0.00 0.00 54 1020.8
20201129170813 49 316 0.0 0.0 0.00 0.00 0.00 57 1020.8
20201129170315 48 316 0.0 0.0 0.00 0.00 0.00 61 1020.8
20201129165810 46 316 0.0 1.0 0.00 0.00 0.00 61 1020.6
20201129165309 46 316 1.0 2.0 0.00 0.00 0.00 61 1020.6
20201129164807 45 316 1.0 2.0 0.00 0.00 0.00 60 1020.6
20201129164304 45 316 1.0 3.0 0.00 0.00 0.00 62 1020.3
20201129163802 44 316 0.0 3.0 0.00 0.00 0.00 63 1020.3
20201129163303 44 316 0.0 2.0 0.00 0.00 0.00 64 1020.3
20201129162802 42 316 0.0 0.0 0.00 0.00 0.00 67 1020.4
20201129162300 41 316 0.0 0.0 0.00 0.00 0.00 66 1020.4
20201129161801 41 316 0.0 0.0 0.00 0.00 0.00 66 1020.4
20201129161254 41 316 0.0 0.0 0.00 0.00 0.00 68 1020.2
20201129160752 40 316 0.0 0.0 0.00 0.00 0.00 70 1020.2
20201129160247 39 316 0.0 0.0 0.00 0.00 0.00 72 1020.2
20201129155743 38 316 0.0 0.0 0.00 0.00 0.00 72 1020.1
20201129155242 38 316 0.0 0.0 0.00 0.00 0.00 74 1020.1
20201129154742 37 316 0.0 0.0 0.00 0.00 0.00 74 1020.1
20201129154239 36 316 0.0 0.0 0.00 0.00 0.00 76 1019.9
20201129153736 35 316 0.0 0.0 0.00 0.00 0.00 76 1019.9
20201129153236 35 316 0.0 0.0 0.00 0.00 0.00 76 1019.9
20201129152736 34 316 0.0 0.0 0.00 0.00 0.00 76 1020.0
20201129152234 34 316 0.0 0.0 0.00 0.00 0.00 77 1020.0
20201129151733 33 316 0.0 0.0 0.00 0.00 0.00 77 1020.0
20201129151239 33 316 0.0 0.0 0.00 0.00 0.00 76 1020.0
20201129150732 33 316 0.0 0.0 0.00 0.00 0.00 77 1020.0
20201129150229 33 316 0.0 0.0 0.00 0.00 0.00 78 1020.0
20201129145726 33 316 0.0 0.0 0.00 0.00 0.00 79 1020.1
20201129145226 33 316 0.0 0.0 0.00 0.00 0.00 78 1020.1
20201129144726 33 316 0.0 0.0 0.00 0.00 0.00 78 1020.1
20201129144228 33 316 0.0 0.0 0.00 0.00 0.00 78 1020.0
20201129143721 33 316 0.0 0.0 0.00 0.00 0.00 79 1020.0
20201129143223 33 316 0.0 0.0 0.00 0.00 0.00 79 1020.0
20201129142718 33 316 0.0 0.0 0.00 0.00 0.00 79 1019.7
20201129142216 34 316 0.0 0.0 0.00 0.00 0.00 79 1019.7
20201129141708 34 316 0.0 0.0 0.00 0.00 0.00 78 1019.7
20201129141208 34 316 0.0 0.0 0.00 0.00 0.00 77 1019.5
20201129140709 34 316 0.0 0.0 0.00 0.00 0.00 77 1019.5
20201129140206 34 316 0.0 0.0 0.00 0.00 0.00 77 1019.5
20201129135704 34 316 0.0 0.0 0.00 0.00 0.00 76 1019.3
20201129135158 34 316 0.0 0.0 0.00 0.00 0.00 76 1019.3
20201129134655 34 316 0.0 0.0 0.00 0.00 0.00 76 1019.3
20201129134150 34 316 0.0 0.0 0.00 0.00 0.00 77 1019.2
20201129133650 34 316 0.0 0.0 0.00 0.00 0.00 77 1019.2
20201129133149 34 316 0.0 0.0 0.00 0.00 0.00 77 1019.2
20201129132648 34 316 0.0 0.0 0.00 0.00 0.00 77 1019.4
20201129132150 34 316 0.0 0.0 0.00 0.00 0.00 77 1019.4
20201129131649 35 316 0.0 0.0 0.00 0.00 0.00 77 1019.4
20201129131144 35 316 0.0 0.0 0.00 0.00 0.00 76 1019.5
20201129130637 35 316 0.0 0.0 0.00 0.00 0.00 75 1019.5
20201129130133 35 316 0.0 0.0 0.00 0.00 0.00 73 1019.5
20201129125632 36 316 0.0 0.0 0.00 0.00 0.00 72 1019.5
20201129125130 36 316 0.0 0.0 0.00 0.00 0.00 71 1019.5
20201129124629 35 316 0.0 0.0 0.00 0.00 0.00 72 1019.5
20201129124129 35 316 0.0 0.0 0.00 0.00 0.00 73 1019.5
20201129123625 35 316 0.0 0.0 0.00 0.00 0.00 74 1019.5
20201129123124 35 316 0.0 0.0 0.00 0.00 0.00 76 1019.5
20201129122624 35 316 0.0 0.0 0.00 0.00 0.00 76 1019.5
20201129122121 35 316 0.0 0.0 0.00 0.00 0.00 76 1019.5
20201129121618 35 316 0.0 0.0 0.00 0.00 0.00 75 1019.5
20201129121119 36 316 0.0 0.0 0.00 0.00 0.00 74 1019.6
20201129120618 36 316 0.0 0.0 0.00 0.00 0.00 73 1019.6
20201129120117 36 316 0.0 0.0 0.00 0.00 0.00 73 1019.6
20201129115613 37 316 0.0 0.0 0.00 0.00 0.00 73 1019.5
20201129115108 37 316 0.0 2.0 0.00 0.00 0.00 73 1019.5
20201129114606 37 316 0.0 3.0 0.00 0.00 0.00 72 1019.5
20201129114103 36 316 0.0 3.0 0.00 0.00 0.00 75 1019.5
20201129113606 36 316 0.0 0.0 0.00 0.00 0.00 75 1019.5
20201129113105 35 316 0.0 0.0 0.00 0.00 0.00 78 1019.5
20201129112605 35 316 0.0 0.0 0.00 0.00 0.00 78 1019.5
20201129112103 35 316 0.0 0.0 0.00 0.00 0.00 78 1019.5